www.pogodaiklimat.ru

Погода и климат >> Архив погоды >> Венгрия >> Мошонмадьяровар


ПОГОДА в Мошонмадьяроваре

  • Прогноз погоды в Мошонмадьяроваре
  • Монитор погоды в Мошонмадьяроваре

АРХИВ ПОГОДЫ в Мошонмадьяроваре

Время (UTC), дата Ветер
(напр.,м/с)
 
Видим.   Явления Облачность Т
(С)
Тd
(С)
f
(%)
Тe
(С)
Тes
(С)
Комфортность P
(гПа)
Po
(гПа)
Тmin
(С)
Tmax
(С)
R
(мм)
R24
(мм)
S
(см)
10 10.08 Ю 2 н/о н/о +31.0 +21.5 57 +39 +39 очень
душно
1013.7 1000.0
11 10.08 ЮВ 3 н/о н/о +33.0 +21.2 50 +41 +41 опасность
перегрева
1013.0 999.4
12 10.08 ЮВ 3 н/о н/о +34.0 +19.7 43 +40 +40 очень
душно
1012.6 999.0
13 10.08 ЮВ 3 н/о н/о +34.2 +19.5 42 +40 +40 очень
душно
1012.3 998.7
14 10.08 ЮВ 2 н/о н/о +34.4 +17.6 37 +38 +38 очень
душно
1012.2 998.6
15 10.08 ЮВ 3 н/о н/о +34.5 +20.1 43 +41 +41 опасность
перегрева
1012.0 998.4
16 10.08 ЮВ 3 н/о н/о +33.2 +18.9 43 +38 +38 очень
душно
1012.2 998.6
17 10.08 ЮВ 2 н/о н/о +32.2 +18.8 45 +37 +37 очень
душно
1012.4 998.7
18 10.08 СЗ 6
{13}
н/о н/о +27.8 +19.9 62 +34 +34 очень
душно
1013.9 1000.0 +35.4
19 10.08 СЗ 8
{14}
н/о н/о +24.0 +19.9 78 +29 +29 душно 1015.8 1001.7
20 10.08 СЗ 8
{13}
н/о н/о +23.3 +18.8 76 +30 +30 очень
душно
1016.5 1002.4
21 10.08 СЗ 5
{15}
н/о н/о +22.4 +18.0 76 +27 +27 душно 1017.3 1003.1
22 10.08 СЗ 4
{11}
н/о н/о +21.4 +17.4 78 +25 +25 комфорт 1017.7 1003.5
23 10.08 СЗ 4
{8}
н/о н/о +20.5 +16.7 79 +24 +24 комфорт 1018.1 1003.8
00 11.08 СЗ 3
{8}
н/о н/о +20.4 +16.0 76 +24 +24 комфорт 1018.3 1004.0
01 11.08 СЗ 3 н/о н/о +20.3 +14.9 71 +23 +23 комфорт 1018.5 1004.2
02 11.08 СЗ 4
{7}
н/о н/о +20.7 +15.5 72 +24 +24 комфорт 1018.7 1004.4
03 11.08 СЗ 3
{7}
н/о н/о +20.1 +15.9 77 +23 +23 комфорт 1018.6 1004.3
04 11.08 СЗ 3 н/о н/о +20.0 +15.8 77 +23 +23 комфорт 1019.0 1004.7
05 11.08 СЗ 4 н/о н/о +20.0 +15.8 77 +23 +23 комфорт 1019.6 1005.3
06 11.08 СЗ 3
{8}
н/о н/о +20.4 +15.8 75 +24 +24 комфорт 1019.9 1005.6 +19.9
07 11.08 СЗ 4
{7}
н/о н/о +21.4 +16.1 72 +25 +25 комфорт 1020.1 1005.8
08 11.08 СЗ 4
{7}
н/о н/о +22.9 +16.5 67 +28 +28 душно 1019.7 1005.5
09 11.08 С 2 н/о н/о +24.6 +16.3 60 +28 +28 душно 1019.4 1005.3
10 11.08 С 3 н/о н/о +27.1 +15.2 48 +30 +30 душно 1019.0 1005.0
11 11.08 СВ 3 н/о н/о +27.8 +14.1 43 +30 +30 жарко 1018.3 1004.4
12 11.08 СВ 2 н/о н/о +28.5 +12.8 38 +30 +30 жарко 1017.6 1003.7
13 11.08 СЗ 2 н/о н/о +29.3 +12.7 36 +30 +30 жарко 1017.2 1003.3
14 11.08 СВ 2 н/о н/о +29.7 +13.5 37 +31 +31 жарко 1016.3 1002.5
15 11.08 СВ 2 н/о н/о +29.5 +13.7 38 +31 +31 жарко 1015.6 1001.8
16 11.08 ЮВ 2 н/о н/о +29.5 +13.7 38 +31 +31 жарко 1014.9 1001.1
17 11.08 В 2 н/о н/о +28.4 +13.5 40 +30 +30 жарко 1014.5 1000.6
18 11.08 В 1 н/о н/о +26.0 +13.8 47 +28 +28 жарко 1014.3 1000.3 +30.1
19 11.08 ЮВ 2 н/о н/о +23.9 +14.9 57 +27 +27 жарко 1014.4 1000.3
20 11.08 ЮВ 2 н/о н/о +23.1 +15.2 61 +27 +27 душно 1014.4 1000.3
21 11.08 Ю 2 н/о н/о +23.2 +14.8 59 +27 +27 душно 1014.0 999.9
22 11.08 ЮВ 3 н/о н/о +23.0 +14.8 60 +27 +27 душно 1013.3 999.2
23 11.08 ЮВ 2 н/о н/о +22.1 +15.0 64 +26 +26 душно 1013.6 999.5
00 12.08 ЮВ 3 н/о н/о +21.5 +15.6 69 +25 +25 комфорт 1012.9 998.7
01 12.08 ЮВ 3 н/о н/о +21.1 +15.4 70 +24 +24 комфорт 1012.6 998.4
02 12.08 ЮВ 1 н/о н/о +19.8 +15.5 76 +23 +23 комфорт 1013.0 998.8
03 12.08 Ю 1 н/о н/о +20.6 +16.0 75 +25 +25 комфорт 1013.1 998.9
04 12.08 Ю 2 н/о н/о +19.8 +16.1 79 +23 +23 комфорт 1013.3 999.1
05 12.08 Ю 2 н/о н/о +21.5 +16.7 74 +25 +25 комфорт 1013.7 999.5
06 12.08 З 1 н/о н/о +24.5 +17.0 63 +28 +28 душно 1013.7 999.7 +19.3
07 12.08 З 2 н/о н/о +25.6 +17.0 59 +29 +29 душно 1014.1 1000.1
08 12.08 СЗ 4
{8}
н/о н/о +27.8 +17.3 53 +32 +32 душно 1014.1 1000.2
09 12.08 СЗ 4
{9}
н/о н/о +29.5 +18.6 52 +35 +35 очень
душно
1014.0 1000.2
10 12.08 С 4 н/о н/о +29.8 +17.6 48 +34 +34 очень
душно
1013.6 999.8
11 12.08 С 3 н/о н/о +31.0 +17.7 45 +35 +35 очень
душно
1013.4 999.7
12 12.08 С 2 н/о н/о +31.1 +18.5 47 +36 +36 очень
душно
1012.8 999.1
13 12.08 ЮВ 1 н/о н/о +32.0 +17.9 43 +36 +36 очень
душно
1012.3 998.6
14 12.08 СЗ 1 н/о н/о +31.9 +18.1 44 +36 +36 очень
душно
1011.7 998.0
15 12.08 С 3 н/о н/о +32.0 +18.2 44 +37 +37 очень
душно
1011.2 997.5
16 12.08 С 3 н/о н/о +30.6 +18.0 47 +35 +35 очень
душно
1010.4 996.7
17 12.08 В 2 н/о н/о +30.1 +17.9 48 +35 +35 очень
душно
1009.8 996.1
18 12.08 СЗ 9
{14}
н/о н/о +27.5 +17.7 55 +32 +32 очень
душно
1011.9 998.0 +32.6
19 12.08 СЗ 6
{14}
н/о н/о +22.3 +18.1 77 +27 +27 душно 1012.5 998.4
20 12.08 СЗ 4
{12}
н/о н/о +21.5 +16.5 73 +25 +25 комфорт 1013.1 998.9
21 12.08 СЗ 3
{7}
н/о н/о +20.8 +16.2 75 +25 +25 комфорт 1012.3 998.1
22 12.08 СЗ 2
{7}
н/о н/о +20.2 +16.0 77 +24 +24 комфорт 1012.1 997.9
23 12.08 СЗ 7
{12}
н/о н/о +20.4 +15.6 74 +23 +23 комфорт 1013.8 999.6
00 13.08 СЗ 8
{17}
н/о н/о +19.4 +15.9 80 +21 +21 комфорт 1014.6 1000.3
01 13.08 С 5
{14}
н/о н/о +19.1 +15.0 77 +20 +20 1014.5 1000.2
02 13.08 СЗ 4
{10}
н/о н/о +18.2 +14.7 80 +18 +18 1014.7 1000.4
03 13.08 СЗ 6
{10}
н/о н/о +17.9 +15.0 83 +17 +17 1015.4 1001.0
04 13.08 СЗ 5
{10}
н/о н/о +17.8 +15.1 84 +17 +17 1016.0 1001.6
05 13.08 СЗ 5
{10}
н/о н/о +18.8 +14.9 78 +20 +20 1016.3 1002.0
06 13.08 СЗ 5
{9}
н/о н/о +18.9 +14.8 77 +20 +20 1016.2 1001.9 +17.7
07 13.08 СЗ 6
{12}
н/о н/о +21.7 +14.6 64 +25 +25 комфорт 1016.3 1002.1
08 13.08 СЗ 7
{13}
н/о н/о +22.7 +15.1 62 +27 +27 душно 1016.6 1002.4
09 13.08 С 6
{13}
н/о н/о +22.4 +15.0 63 +26 +26 жарко 1016.9 1002.7
10 13.08 С 6
{11}
н/о н/о +22.0 +14.1 61 +25 +25 комфорт 1016.7 1002.5
11 13.08 С 5
{10}
н/о н/о +21.8 +14.0 61 +25 +25 комфорт 1016.6 1002.4
12 13.08 СЗ 6
{11}
н/о н/о +23.7 +14.1 55 +26 +26 жарко 1016.6 1002.5
13 13.08 СЗ 6
{10}
н/о н/о +23.9 +14.0 54 +26 +26 жарко 1015.8 1001.7
14 13.08 СЗ 6
{10}
н/о н/о +25.0 +13.9 50 +27 +27 жарко 1015.6 1001.6
15 13.08 СЗ 5
{10}
н/о н/о +25.3 +12.5 45 +27 +27 жарко 1014.9 1000.9
16 13.08 С 6
{10}
н/о н/о +24.7 +13.0 48 +27 +27 жарко 1014.7 1000.7
17 13.08 СЗ 5
{10}
н/о н/о +22.7 +11.8 50 +25 +25 комфорт 1014.7 1000.6
18 13.08 СЗ 4
{9}
н/о н/о +21.6 +12.5 56 +24 +24 комфорт 1015.0 1000.8 +25.5
19 13.08 СЗ 4
{8}
н/о н/о +20.8 +13.3 62 +23 +23 комфорт 1015.0 1000.8
20 13.08 СЗ 3
{7}
н/о н/о +19.7 +12.5 63 +22 +22 комфорт 1014.8 1000.5
21 13.08 СЗ 4
{9}
н/о н/о +19.2 +11.8 62 +20 +20 1014.1 999.8
22 13.08 СЗ 4
{9}
н/о н/о +19.4 +14.4 73 +21 +21 комфорт 1014.8 1000.5
23 13.08 СЗ 3
{8}
н/о н/о +17.3 +15.1 87 +17 +17 1015.6 1001.2
00 14.08 СЗ 5
{8}
н/о н/о +16.4 +13.9 85 +15 +15 1015.6 1001.2 5
01 14.08 СЗ 4
{8}
н/о н/о +15.3 +13.5 89 +14 +14 1015.6 1001.1
02 14.08 СЗ 5
{10}
н/о н/о +14.6 +13.3 92 +13 +13 1015.2 1000.7
03 14.08 СЗ 4
{9}
н/о н/о +14.7 +13.4 92 +13 +13 1015.9 1001.4
04 14.08 СЗ 3 н/о н/о +14.5 +13.4 93 +14 +14 1015.6 1001.1
05 14.08 СЗ 2 н/о н/о +14.9 +13.4 91 +15 +15 1016.3 1001.8
06 14.08 СЗ 2 н/о н/о +15.3 +13.7 90 +15 +15 1016.0 1001.5 +14.5 12
07 14.08 СЗ 5
{8}
н/о н/о +16.3 +13.2 82 +15 +15 1015.7 1001.3
08 14.08 СЗ 7
{11}
н/о н/о +17.5 +13.4 77 +17 +17 1016.4 1002.0
09 14.08 СЗ 6
{10}
н/о н/о +19.6 +14.0 70 +21 +21 комфорт 1016.1 1001.8
10 14.08 С 5
{10}
н/о н/о +21.2 +13.1 60 +24 +24 комфорт 1016.2 1002.0
11 14.08 С 5
{11}
н/о н/о +22.6 +12.8 54 +25 +25 комфорт 1016.1 1002.0
12 14.08 С 5
{9}
н/о н/о +22.9 +11.9 50 +25 +25 комфорт 1015.9 1001.8
13 14.08 СЗ 7
{12}
н/о н/о +22.9 +11.0 47 +25 +25 комфорт 1015.8 1001.7
14 14.08 СЗ 6
{9}
н/о н/о +23.8 +10.1 42 +25 +25 комфорт 1015.8 1001.7
15 14.08
{7}
н/о н/о +22.1 +12.4 54 1015.9 1001.7
16 14.08 С 3 н/о н/о +23.3 +11.4 47 +26 +26 жарко 1015.8 1001.7
17 14.08 СВ 2
{7}
н/о н/о +21.8 +11.5 52 +24 +24 комфорт 1016.0 1001.8
18 14.08 С 1 н/о н/о +18.9 +12.6 67 +21 +21 комфорт 1016.7 1002.4 +24.8
19 14.08 СВ 2 н/о н/о +16.0 +12.6 80 +16 +16 1017.5 1003.0
20 14.08 штиль 0 н/о н/о +15.3 +11.7 79 +15 +15 1017.9 1003.4
21 14.08 З 1 н/о н/о +14.0 +12.0 88 +14 +14 1018.2 1003.6
22 14.08 СЗ 1 н/о н/о +13.1 +11.2 88 +13 +13 1018.1 1003.5
23 14.08 СЗ 1 н/о н/о +12.6 +11.2 91 +13 +13 1018.1 1003.4
00 15.08 СЗ 1 н/о н/о +12.2 +10.4 89 +12 +12 1018.2 1003.5
01 15.08 СЗ 1 н/о н/о +11.6 +9.7 88 +11 +11 1018.2 1003.5
02 15.08 СЗ 1 н/о н/о +11.7 +9.6 87 +12 +12 1017.8 1003.1
03 15.08 С 1 н/о н/о +11.1 +9.7 91 +11 +11 1017.8 1003.1
04 15.08 штиль 0 н/о н/о +10.9 +9.7 92 +10 +10 1017.9 1003.1
05 15.08 С 1 н/о н/о +11.9 +10.5 91 +12 +12 1018.1 1003.4
06 15.08 СВ 1 н/о н/о +16.0 +11.0 72 +17 +17 1017.9 1003.4 +10.7
07 15.08 С 1 н/о н/о +18.1 +11.9 67 +19 +19 1017.5 1003.1
08 15.08 ЮВ 1 н/о н/о +20.6 +12.8 61 +24 +24 комфорт 1017.2 1002.9
09 15.08 ЮВ 1 н/о н/о +22.1 +10.9 49 +24 +24 комфорт 1016.7 1002.5
10 15.08 Ю 2 н/о н/о +23.4 +9.4 41 +25 +25 комфорт 1016.2 1002.1
11 15.08 Ю 2 н/о н/о +24.4 +8.4 36 +25 +25 комфорт 1015.6 1001.5
12 15.08 В 2 н/о н/о +23.5 +9.1 40 +24 +24 комфорт 1015.2 1001.1
13 15.08 Ю 2 н/о н/о +25.0 +8.9 36 +26 +26 жарко 1014.6 1000.6
14 15.08 ЮВ 3 н/о н/о +25.1 +9.8 38 +26 +26 жарко 1014.2 1000.2
15 15.08 Ю 3 н/о н/о +25.5 +8.5 34 +26 +26 жарко 1014.0 1000.0
16 15.08 ЮВ 3 н/о н/о +24.8 +8.3 35 +25 +25 комфорт 1013.8 999.8
17 15.08 ЮВ 1 н/о н/о +23.2 +9.2 41 +25 +25 комфорт 1014.1 1000.0
18 15.08 В 1 н/о н/о +20.7 +11.3 55 +24 +24 комфорт 1014.3 1000.1 +25.7
19 15.08 ЮВ 2 н/о н/о +19.0 +10.8 59 +20 +20 1014.9 1000.6
20 15.08 Ю 2 н/о н/о +18.8 +10.4 58 +20 +20 1015.2 1000.9
21 15.08 Ю 2 н/о н/о +19.5 +10.2 55 +21 +21 комфорт 1015.3 1001.0
22 15.08 Ю 1 н/о н/о +19.1 +10.7 58 +21 +21 комфорт 1015.3 1001.0
23 15.08 ЮЗ 1 н/о н/о +19.0 +11.1 60 +21 +21 комфорт 1015.3 1001.0
00 16.08 ЮЗ 2 н/о н/о +18.7 +11.5 63 +20 +20 1015.3 1001.0
01 16.08 ЮЗ 2 н/о н/о +18.5 +11.8 65 +20 +20 1015.4 1001.1
02 16.08 СЗ 2 н/о н/о +16.6 +11.5 72 +17 +17 1015.5 1001.1
03 16.08 З 2 н/о н/о +16.8 +11.7 72 +17 +17 1015.7 1001.3
04 16.08 СЗ 2 н/о н/о +16.2 +12.0 76 +16 +16 1016.2 1001.7
05 16.08 СЗ 3 н/о н/о +16.8 +12.3 75 +17 +17 1016.3 1001.9
06 16.08 З 2 н/о н/о +18.6 +13.2 71 +20 +20 1016.8 1002.4 +16.0
07 16.08 СЗ 3
{7}
н/о н/о +19.4 +13.1 67 +21 +21 комфорт 1017.0 1002.7
08 16.08 СЗ 5
{7}
н/о н/о +21.1 +14.0 64 +24 +24 комфорт 1017.2 1003.0
09 16.08 СЗ 6
{10}
н/о н/о +21.9 +13.3 58 +25 +25 комфорт 1017.3 1003.1
10 16.08 СЗ 4
{10}
н/о н/о +22.9 +13.4 55 +26 +26 жарко 1017.0 1002.9
11 16.08 З 4
{9}
н/о н/о +23.5 +12.8 51 +26 +26 жарко 1016.5 1002.4
12 16.08 СЗ 4
{9}
н/о н/о +23.0 +12.9 53 +26 +26 жарко 1016.4 1002.3
13 16.08 СЗ 7
{12}
н/о н/о +22.7 +12.6 53 +25 +25 комфорт 1016.3 1002.2
14 16.08 СЗ 6
{10}
н/о н/о +24.7 +11.3 43 +26 +26 жарко 1015.8 1001.8
15 16.08 СЗ 7
{11}
н/о н/о +23.1 +10.2 44 +25 +25 комфорт 1016.3 1002.2
16 16.08 СЗ 6
{11}
н/о н/о +22.6 +11.7 50 +25 +25 комфорт 1016.3 1002.1
17 16.08 СЗ 3
{11}
н/о н/о +22.0 +12.3 54 +24 +24 комфорт 1016.4 1002.2
18 16.08 СЗ 4 н/о н/о +21.2 +11.8 55 +23 +23 комфорт 1016.7 1002.5 +25.3
19 16.08 СЗ 3 н/о н/о +20.2 +11.4 57 +22 +22 комфорт 1017.3 1003.0
20 16.08 З 2 н/о н/о +18.2 +11.3 64 +19 +19 1017.6 1003.2
21 16.08 З 2 н/о н/о +17.5 +11.5 68 +18 +18 1017.6 1003.2
22 16.08 З 1 н/о н/о +15.1 +11.1 77 +16 +16 1017.5 1003.0
23 16.08 штиль 0 н/о н/о +13.9 +11.1 83 +14 +14 1017.6 1003.0
00 17.08 СЗ 1 н/о н/о +12.5 +10.2 86 +12 +12 1017.7 1003.0
01 17.08 СЗ 1 н/о н/о +13.3 +11.4 88 +13 +13 1017.4 1002.8
02 17.08 СЗ 1 н/о н/о +12.1 +10.7 91 +12 +12 1017.4 1002.7
03 17.08 Ю 2 н/о н/о +12.9 +11.6 92 +12 +12 1017.1 1002.5
04 17.08 ЮВ 1 н/о н/о +11.7 +10.6 93 +11 +11 1017.6 1002.9
05 17.08 В 1 н/о н/о +12.7 +11.9 95 +13 +13 1017.4 1002.7
06 17.08 В 1 н/о н/о +17.1 +13.4 79 +18 +18 1017.3 1002.9 +10.9
07 17.08 ЮВ 2 н/о н/о +19.4 +14.0 71 +22 +22 комфорт 1017.5 1003.2
08 17.08 В 2 н/о н/о +21.5 +14.4 64 +24 +24 комфорт 1016.9 1002.7
09 17.08 ЮВ 3 н/о н/о +23.5 +13.9 55 +26 +26 жарко 1016.4 1002.3
10 17.08 Ю 3
{7}
н/о н/о +23.4 +13.3 53 +27 +27 душно 1016.5 1002.4

 

Местоположение метеостанции Мошонмадьяровар (Венгрия): широта 47.88 долгота 17.28 высота над уровнем моря 122 м.

В архиве по умолчанию представлена погода в Мошонмадьяроваре за последнюю неделю. Архивные данные за месяц целиком и за предыдущие месяцы, начиная с января 2011 года, Вы можете получить, выбрав интересующий диапазон дат из раскрывающегося списка и нажав кнопку "Ввод!".


*Определитесь, кто Вы:
робот инопланетянин человек

Внимание! Время в таблицах - всемирное. Для получения местного времени необходимо прибавить поправку, которая равна 1 ч.

Смотрите также архив погоды в соседних городах и на ближайших метеорологических станциях:

Погода в Андау (Австрия) (22 км)
Погода в Нойзидль-ам-Зе (Австрия) (33 км)
Погода в Братислава-Колибе (Словакия) (34 км)
Погода в Нойзидль-ам-Зе (Австрия) (34 км)
Погода в Дьере (Венгрия) (35 км)
Погода в Братиславе (Словакия) (36 км)
Погода в Малом Яровнику (Словакия) (42 км)
Погода в Пер аэропорту (Венгрия) (49 км)
Погода в Шопроне (Венгрия) (55 км)
Погода в Айзенштадте (Австрия) (56 км)

Пояснения к столбцам:

Ветер - указаны скорость ветра в м/с - средняя за 10 мин, порывы в срок и между сроками (в фигурных скобках) и направление, откуда дует ветер: С - северный, СВ - северо-восточный, В - восточный, ЮВ - юго-восточный, Ю - южный, ЮЗ - юго-западный, З - западный, СЗ - северо-западный.
Видимость - горизонтальная дальность видимости в метрах или километрах. При видимости от 1 до 10 км при отсутствии осадков обычно наблюдается дымка, при ухудшении видимости до 1 км и менее - туман. В сухую погоду видимость может ухудшаться дымом, пылью или мглою.
Явления - указаны атмосферные явления, наблюдавшиеся в срок или в последний час перед сроком; фигурными скобками обозначены явления, наблюдавшиеся между сроками (за 1-3 часа до срока); квадратными скобками обозначены град или гололедные отложения с указанием их диаметра в мм.
Облачность - указаны через наклонную черту общая и нижняя облачность в баллах и высота нижней границы облаков в метрах; квадратными скобками обозначены формы облаков: Ci - перистые, Cs - перисто-слоистые, Cc - перисто-кучевые, Ac - высококучевые, As - высокослоистые, Sc - слоисто-кучевые, Ns - слоисто-дождевые, Cu - кучевые, Cb - кучево-дождевые. Подробнее классификацию облаков см. в Атласе облаков (PDF).
T - Температура воздуха - температура, измеренная на высоте 2 м над землей.
Td - Температура точки росы - температура, при понижении до которой содержащийся в воздухе водяной пар достигнет насыщения.
f - Относительная влажность воздуха - влажноcть воздуха, измеренная на высоте 2 м над землей.
Te - Эффективная температура - температура, которую ощущает одетый по сезону человек в тени. Характеристика душности погоды. При расчете учитывается влияние влажности воздуха и скорости ветра на теплоощущения человека.
Tes - Эффективная температура на солнце - температура, которую ощущает человек, с поправкой на солнечный нагрев. Характеристика знойности погоды. Зависит от высоты солнца над горизонтом, облачности и скорости ветра. Ночью, в пасмурную погоду, а также при ветре 12 м/с и более поправка равна нулю.
P - Атмосферное давление - приведенное к уровню моря атмосферное давление.
Po - Атмосферное давление - измеренное на уровне метеостанции атмосферное давление.
Tmin - Минимальная температура - минимум температуры воздуха на высоте 2 м над землей.
Tmax - Максимальная температура - максимум температуры воздуха на высоте 2 м над землей.
R - Количество осадков - Количество выпавших осадков за период времени, мм. При наведении курсора мыши на число - период времени, за который выпало указанное количество осадков.
R24 - Количество осадков - Количество выпавших осадков за 24 часа, мм.
S - Снежный покров - Высота снежного покрова, см. При наведении курсора мыши на число - состояние снежного покрова и степень покрытия местности в баллах.